Stations météo

réclame
Mon MeteoGroup
Kiruna Airport, Suède (2044): Température de l'air & dewpoint: 11.01.2019 02:00:00 - 17.01.2019 02:00:00 (CET)Kiruna Airport, Suède (2044): Vitesse du vent: 11.01.2019 02:00:00 - 17.01.2019 02:00:00 (CET)Kiruna Airport, Suède (2044): Direction du vent: 11.01.2019 02:00:00 - 17.01.2019 02:00:00 (CET)Kiruna Airport, Suède (2044): reduced air pressure: 11.01.2019 02:00:00 - 17.01.2019 02:00:00 (CET)Kiruna Airport, Suède (2044): visibility: 11.01.2019 02:00:00 - 17.01.2019 02:00:00 (CET)
Date & Time tt [°C] td [°C] ff [km/h] ff [knt] dd ppp [hPa] vv [km]
17.01.2019 02:00:00 -19,0 -21,0 4 2 SSW - 5
17.01.2019 01:00:00 -18,5 -20,4 4 2 SW 990,9 4,0
17.01.2019 00:00:00 -17,1 -18,7 4 2 SSW 991,1 8
16.01.2019 23:00:00 -17,3 -19,2 0 0 N 991,2 10
16.01.2019 22:00:00 -17,9 -19,5 0 0 N 991,3 8
16.01.2019 21:00:00 -17,6 -19,2 0 0 N 991,4 6
16.01.2019 20:00:00 -17,8 -19,4 0 0 N 991,6 1,7
16.01.2019 19:00:00 -19,5 -21,2 2 1 SSW 992,0 5
16.01.2019 18:00:00 -19,1 -21,1 0 0 N 992,1 8
16.01.2019 17:00:00 -17,7 -19,5 0 0 N 992,2 8
16.01.2019 16:00:00 -18,4 -20,0 0 0 N 992,4 10
16.01.2019 15:00:00 -20,8 -22,8 0 0 N 993,1 10
16.01.2019 14:00:00 -20,3 -22,6 4 2 SSW 993,0 10
16.01.2019 13:00:00 -18,6 -20,4 2 1 WSW 993,2 4,9
16.01.2019 12:00:00 -18,7 -20,6 0 0 N 993,4 10
16.01.2019 11:00:00 -17,2 -18,8 2 1 S 993,7 10
16.01.2019 10:00:00 -16,8 -18,4 4 2 WSW 993,8 10
16.01.2019 09:00:00 -17,0 -18,6 4 2 SSW 993,6 10
16.01.2019 08:00:00 -17,6 -19,2 2 1 SW 993,7 5
16.01.2019 07:00:00 -16,4 -18,1 0 0 N 993,5 2,0
16.01.2019 06:00:00 -15,4 -16,9 0 0 N 993,5 3,1
16.01.2019 05:00:00 -13,9 -15,3 0 0 N 993,5 0,1
16.01.2019 04:00:00 -11,9 -12,9 5 3 NE 993,2 2,2
16.01.2019 03:00:00 -13,6 -14,8 0 0 N 993,3 0,7
16.01.2019 02:00:00 -13,0 -14,2 0 0 N 993,0 1,5
16.01.2019 01:00:00 -12,8 -14,1 0 0 N 993,0 2,6
16.01.2019 00:00:00 -13,8 -15,1 0 0 N 993,1 7
15.01.2019 23:00:00 -13,1 -14,3 4 2 SSW 992,9 10
15.01.2019 22:00:00 -12,2 -13,5 0 0 N 992,6 8
15.01.2019 21:00:00 -10,2 -11,2 0 0 N 992,1 2,1
15.01.2019 20:00:00 -9,6 -10,5 0 0 N 991,7 2,4
15.01.2019 19:00:00 -9,7 -10,8 0 0 N 991,5 1,4
15.01.2019 18:00:00 -9,3 -10,2 4 2 SSW 991,5 2,5
15.01.2019 17:00:00 -9,2 -10,1 0 0 N 991,4 2,0
15.01.2019 16:00:00 -9,0 -10,0 0 0 N - 2,0
15.01.2019 15:00:00 -9,0 -10,0 5 3 - - 2,0
15.01.2019 14:00:00 -9,5 -10,4 4 2 E 990,9 2,0
15.01.2019 13:00:00 -9,8 -10,7 0 0 N 991,0 1,5
15.01.2019 12:00:00 -10,6 -11,6 4 2 SSW 991,2 3,4
15.01.2019 11:00:00 -11,2 -12,2 5 3 SSW 991,3 7
15.01.2019 10:00:00 -11,6 -12,6 8 4 SW 991,5 10
15.01.2019 09:00:00 -11,8 -13,5 8 4 SSW 991,4 10
15.01.2019 08:00:00 -11,2 -12,2 8 4 SW 991,4 3,4
15.01.2019 07:00:00 -12,2 -13,5 8 4 SSW 991,2 10
15.01.2019 06:00:00 -11,8 -13,1 5 3 SSW 991,2 10
15.01.2019 05:00:00 -13,9 -15,5 5 3 SW 991,5 10
15.01.2019 04:00:00 -12,4 -13,8 9 5 WSW 991,4 10
15.01.2019 03:00:00 -15,0 -16,4 5 3 WSW 991,5 10
15.01.2019 02:00:00 -17,5 -19,1 5 3 WSW 991,6 10
15.01.2019 01:00:00 -19,5 -21,8 5 3 WSW 991,5 10
15.01.2019 00:00:00 -19,0 -20,9 5 3 SW 991,2 10
14.01.2019 23:00:00 -18,4 -20,2 4 2 SSW 990,9 10
14.01.2019 22:00:00 -17,6 -19,4 4 2 S 990,3 10
14.01.2019 21:00:00 -15,2 -16,7 4 2 S 989,7 10
14.01.2019 20:00:00 -13,8 -14,9 4 2 NNW 989,0 10
14.01.2019 19:00:00 -13,5 -14,8 4 2 - 988,5 10
14.01.2019 18:00:00 -13,4 -14,8 2 1 WNW 987,8 10
14.01.2019 17:00:00 -10,7 -11,7 5 3 NNE 986,6 10
14.01.2019 16:00:00 -10,3 -11,3 9 5 N 986,0 10
14.01.2019 15:00:00 -10,0 -11,1 11 6 N 985,3 4,0
14.01.2019 14:00:00 -9,7 -10,7 9 5 N 984,7 6
14.01.2019 13:00:00 -9,6 -10,6 5 3 N 983,9 6
14.01.2019 12:00:00 -9,4 -10,5 8 4 N 983,2 3,1
14.01.2019 11:00:00 -9,9 -11,0 9 5 N 982,7 4,5
14.01.2019 10:00:00 -10,5 -11,5 9 5 N 982,1 3,5
14.01.2019 09:00:00 -11,0 -12,3 9 5 N 981,4 4,7
14.01.2019 08:00:00 -11,2 -12,7 9 5 N 980,6 6
14.01.2019 07:00:00 -11,7 -13,1 8 4 N 979,8 8
14.01.2019 06:00:00 -13,7 -15,2 2 1 N 979,6 10
14.01.2019 05:00:00 -15,1 -16,5 0 0 N 979,2 10
14.01.2019 04:00:00 -13,3 -14,6 4 2 N 978,5 9
14.01.2019 03:00:00 -14,0 -15,3 0 0 N 978,2 10
14.01.2019 02:00:00 -15,6 -17,3 0 0 N 977,8 10
14.01.2019 01:00:00 -13,9 -15,0 0 0 N 977,1 6
14.01.2019 00:00:00 -14,6 -15,9 0 0 N 976,9 9
13.01.2019 23:00:00 -14,9 -16,3 0 0 N 976,6 10
13.01.2019 22:00:00 -13,5 -14,7 0 0 N 976,1 10
13.01.2019 21:00:00 -14,5 -16,0 4 2 NNW 976,0 10
13.01.2019 20:00:00 -13,8 -15,1 4 2 WSW 975,7 10
13.01.2019 19:00:00 -13,2 -14,5 0 0 N 975,3 10
13.01.2019 18:00:00 -12,7 -14,0 5 3 SSW 975,2 10
13.01.2019 17:00:00 -13,7 -15,3 5 3 SSW 975,4 10
13.01.2019 16:00:00 -13,4 -15,0 5 3 WSW 975,4 10
13.01.2019 15:00:00 -12,7 -14,0 5 3 WSW 975,2 10
13.01.2019 14:00:00 -10,6 -12,3 5 3 WSW 975,2 10
13.01.2019 13:00:00 -10,5 -12,4 9 5 WSW 975,7 10
13.01.2019 12:00:00 -10,0 -12,3 9 5 SW 976,2 10
13.01.2019 11:00:00 -10,9 -13,1 8 4 SW 977,0 9
13.01.2019 10:00:00 -9,9 -12,4 8 4 SW 977,3 10
13.01.2019 09:00:00 -9,7 -12,5 13 7 SW 977,6 10
13.01.2019 08:00:00 -10,0 -12,6 9 5 SW 978,2 10
13.01.2019 07:00:00 -9,5 -12,8 8 4 SW 978,8 10
13.01.2019 06:00:00 -8,7 -12,7 8 4 SSW 979,8 10
13.01.2019 05:00:00 -7,5 -12,6 13 7 SSW 980,3 10
13.01.2019 04:00:00 -8,4 -12,7 13 7 SW 981,6 10
13.01.2019 03:00:00 -7,0 -11,9 11 6 SW 982,2 10
13.01.2019 02:00:00 -7,4 -11,4 5 3 S 983,2 10
13.01.2019 01:00:00 -4,6 -11,4 8 4 W 983,6 10
13.01.2019 00:00:00 -5,3 -10,8 11 6 W 984,2 10
12.01.2019 23:00:00 -5,8 -10,6 13 7 W 984,9 10
12.01.2019 22:00:00 -5,5 -10,7 5 3 WNW 985,5 10
12.01.2019 21:00:00 -5,5 -10,5 15 8 NW 986,2 10
12.01.2019 20:00:00 -4,8 -10,2 11 6 WNW 986,6 10
12.01.2019 19:00:00 -5,1 -10,3 26 14 NW 986,5 10
12.01.2019 18:00:00 -5,2 -10,6 22 12 WNW 986,9 10
12.01.2019 17:00:00 -4,9 -9,5 22 12 WNW 987,7 10
12.01.2019 16:00:00 -4,7 -9,9 29 16 NW 987,7 10
12.01.2019 15:00:00 -4,7 -9,7 21 11 NW 988,2 10
12.01.2019 14:00:00 -4,1 -9,7 37 20 NW 987,7 10
12.01.2019 13:00:00 -4,5 -9,3 29 16 WNW 987,8 10
12.01.2019 12:00:00 -4,3 -9,5 31 17 NW 987,6 10
12.01.2019 11:00:00 -4,7 -9,9 28 15 NW 988,1 10
12.01.2019 10:00:00 -4,7 -9,5 24 13 WNW 988,0 10
12.01.2019 09:00:00 -4,7 -9,7 37 20 NW 987,8 10
12.01.2019 08:00:00 -4,5 -10,1 44 24 NW 987,5 10
12.01.2019 07:00:00 -4,5 -10,1 42 23 NW 987,3 10
12.01.2019 06:00:00 -4,4 -10,0 44 24 NW 986,4 10
12.01.2019 05:00:00 -4,5 -9,9 37 20 NNW 986,1 10
12.01.2019 04:00:00 -4,5 -10,5 48 26 NW 986,0 7
12.01.2019 03:00:00 -4,4 -9,2 41 22 NW 986,5 10
12.01.2019 02:00:00 -4,5 -9,3 41 22 NW 986,2 10
12.01.2019 01:00:00 -4,5 -9,0 42 23 NW 985,8 10
12.01.2019 00:00:00 -4,0 -8,5 41 22 NW 985,7 10
11.01.2019 23:00:00 -3,6 -5,4 29 16 NW 985,5 2,0
11.01.2019 22:00:00 -3,1 -6,1 37 20 NW 984,9 10
11.01.2019 21:00:00 -2,7 -7,0 28 15 NW 984,5 10
11.01.2019 20:00:00 -2,5 -6,1 35 19 NW 983,8 10
11.01.2019 19:00:00 -2,0 -6,2 42 23 NW 982,4 10
11.01.2019 18:00:00 -1,6 -5,4 44 24 NNW 980,8 2,6
11.01.2019 17:00:00 -1,1 -5,0 37 20 NNW 979,7 3,8
11.01.2019 16:00:00 -0,4 -4,5 37 20 NW 978,2 8
11.01.2019 15:00:00 -0,7 -4,8 35 19 NW 976,9 10
11.01.2019 14:00:00 -1,2 -4,4 37 20 NW 975,3 10
11.01.2019 13:00:00 -1,4 -3,0 39 21 NW 973,3 10
11.01.2019 12:00:00 -1,1 -1,5 22 12 NNW 971,1 10
11.01.2019 11:00:00 -0,6 -1,9 31 17 WNW 968,5 10
11.01.2019 10:00:00 -1,5 -2,2 34 18 W 967,8 3,0
11.01.2019 09:00:00 -0,7 -6,1 26 14 WNW 967,1 10
11.01.2019 08:00:00 -1,6 -6,4 21 11 W 966,7 10
11.01.2019 07:00:00 -3,3 -6,4 22 12 SW 966,6 10
11.01.2019 06:00:00 -3,4 -7,7 26 14 WSW 966,1 10
11.01.2019 05:00:00 -1,7 -4,9 31 17 WNW 966,3 5
11.01.2019 04:00:00 -2,4 -3,4 41 22 SW 966,2 1,0
11.01.2019 03:00:00 -3,6 -5,3 34 18 SSW 967,5 10
11.01.2019 02:00:00 -3,8 -5,5 41 22 SSW 968,8 10

tt = Température de l'air
td = dewpoint
ff = Vitesse du vent
dd = Direction du vent
ppp = reduced air pressure
vv = visibility

stations d'obs. à proximité